CAPE
0 0 0 0 0 0 0 0 0 0 0 0 0 0 0 0 0 0 0 0 0 0 0 0 0 0 0 0 0 0 0 0 0 0 0 0 0 0 0 0 0 0 0 0
0 0 0 0 0 0 0 0 0 0 0 0 0 0 0 0 0 0 0 0 0 0 0 0 0 0 0 0 0 0 0 0 0 0 0 0 0 0 0 0 0 0 0 0
0 0 0 0 0 0 0 0 0 0 0 0 0 0 0 0 0 0 0 0 0 0 0 0 0 0 0 0 0 0 0 0 0 0 0 0 0 0 0 0 0 0 0 0
0 0 0 0 0 0 0 0 0 0 0 0 0 0 0 0 0 0 0 0 0 0 0 0 0 0 0 0 0 0 0 0 0 0 0 0 0 0 0 0 0 0 0 0
0 0 0 0 0 0 0 0 0 0 0 0 0 0 0 0 0 2 9 3 0 0 0 0 0 0 0 0 0 0 0 0 0 0 0 0 0 0 0 0 0 0 0 0
0 0 0 0 0 0 0 0 0 0 0 0 0 0 0 0 1 2 0 0 0 0 0 0 0 0 0 0 0 0 0 0 0 0 0 0 0 0 0 0 1 0 0 0
0 0 0 0 0 0 6 0 0 0 0 0 0 0 0 0 0 0 0 0 0 0 0 0 0 0 0 0 0 0 0 0 0 0 0 0 0 0 0 0 0 1 1 0
0 0 1 0 0 0 0 0 0 0 0 0 0 0 0 0 0 0 0 0 0 0 0 0 0 0 0 0 0 0 0 0 0 0 0 0 0 0 0 0 0 1 1 0
0 0 0 0 0 0 0 0 0 0 0 0 0 0 0 0 0 0 0 0 0 0 0 0 0 0 0 0 0 0 0 0 0 0 0 0 0 0 0 0 0 0 2 1
0 0 0 0 0 0 0 0 0 0 0 0 0 0 0 0 0 1 0 0 0 0 0 0 0 0 0 0 0 0 0 0 0 0 0 0 0 0 0 0 0 0 1 0
0 0 0 0 0 0 0 0 0 0 0 0 0 0 0 0 0 0 0 0 0 0 0 0 0 0 0 0 0 0 0 0 0 0 0 0 0 0 0 0 0 0 0 3
0 0 0 0 0 0 0 0 0 0 0 0 0 1 8 4 0 0 0 0 0 0 0 0 0 0 0 0 0 0 0 0 0 0 0 0 0 0 0 0 0 0 0 2
0 0 0 0 0 0 0 0 1 0 0 0 0 0 0 0 0 0 0 0 0 0 0 0 0 0 0 0 0 0 0 0 0 0 0 0 0 0 0 0 0 0 0 2
0 0 0 0 0 0 0 0 0 0 0 0 0 0 0 0 0 0 0 0 0 0 0 0 0 0 0 0 0 0 0 0 0 0 0 0 0 0 0 0 0 0 0 0
0 0 0 0 0 0 0 0 0 0 0 0 0 0 0 0 0 0 0 0 0 0 0 0 0 0 0 0 0 0 0 0 0 0 0 0 0 0 1 1 0 0 0 1
0 0 0 0 0 0 0 0 0 0 0 0 0 0 0 0 0 0 0 0 0 0 0 0 0 0 0 0 0 0 0 0 0 0 0 0 0 0 2 0 0 0 1 2
0 0 0 0 0 0 0 0 0 0 0 0 0 0 0 0 0 0 0 0 0 0 0 0 0 0 0 0 0 0 0 0 0 0 0 0 0 0 1 0 2 2 1 5
0 0 0 0 0 0 0 0 0 0 0 0 0 0 0 0 0 0 0 0 0 0 0 0 0 0 0 0 0 0 0 0 0 0 0 0 0 1 1 1 2 5 2 3
0 0 0 0 0 0 0 0 0 0 0 0 0 0 0 0 0 0 0 0 0 0 0 0 0 0 0 0 0 0 0 0 0 0 0 0 3 2 4 2 1 1 1 0
0 0 0 0 0 0 0 0 0 0 0 0 0 0 0 0 0 0 0 0 0 0 0 0 0 0 0 0 0 0 0 0 0 0 0 1 1 0 3 5 6 0 0 1
0 0 0 0 0 0 0 0 0 0 0 0 0 0 0 0 0 0 0 0 0 0 0 0 0 0 0 0 0 0 0 0 0 0 0 1 1 0 0 0 0 0 0 1
0 0 0 0 0 0 0 0 0 0 0 0 0 0 0 0 0 0 0 0 0 0 0 0 0 0 0 0 0 0 0 0 1 0 0 0 0 0 0 0 0 0 0 1
0 0 0 0 0 0 0 0 0 0 0 0 0 0 0 0 0 0 0 0 0 0 0 0 0 0 0 2 1 1 0 0 0 0 0 0 0 0 0 0 0 0 0 0
0 0 0 0 0 0 0 0 0 0 0 0 0 0 0 0 0 0 0 0 0 0 0 0 0 0 5 1 0 0 0 0 0 0 0 0 0 0 0 0 0 0 0 0
0 0 0 0 0 0 0 0 0 0 0 0 0 0 0 0 0 0 0 0 0 0 0 0 0 1 0 0 0 0 0 0 0 0 0 0 0 0 0 0 0 0 0 0
0 0 0 0 0 0 0 2 3 0 0 0 0 0 0 0 0 0 0 0 0 0 0 0 0 0 0 0 0 0 0 0 0 0 0 0 0 0 0 0 0 0 0 0
0 2 2 2 1 2 2 4 5 3 1 0 0 0 0 0 0 0 1 0 0 0 0 0 0 0 0 0 0 0 0 0 0 0 0 0 0 0 0 0 0 0 0 0
CIN
0 0 0 0 0 0 0 0 0 0 0 0 0 0 0 0 0 0 0 0 0 0 0 0 0 0 0 0 0 0 0 0 0 0 0 0 0 0 0 0 0 0 0 0
0 0 0 0 0 0 0 0 0 0 0 0 0 0 0 0 0 0 0 0 0 0 0 0 0 0 0 0 0 0 0 0 0 0 0 0 0 0 0 0 0 0 0 0
0 0 0 0 0 0 0 0 0 0 0 0 0 0 0 0 0 0 0 0 0 0 0 0 0 0 0 0 0 0 0 0 0 0 0 0 0 0 0 0 0 0 0 0
0 0 0 0 0 0 0 0 0 0 0 0 0 0 0 0 0 0 0 0 0 0 0 0 0 0 0 0 0 0 0 0 0 0 0 0 0 0 0 0 0 0 0 0
0 0 0 0 0 0 0 0 0 0 0 0 0 0 0 0 0 -1 -7 -16 0 0 0 0 0 0 0 0 0 0 0 0 0 0 0 0 0 0 0 0 0 0 0 0
0 0 0 0 0 0 0 0 0 0 0 0 0 0 0 0 -1 -6 0 0 0 0 0 0 0 0 0 0 0 0 0 0 0 0 0 0 0 0 0 0 -2 0 0 0
0 -3 0 0 0 0 -7 0 0 0 0 0 0 0 0 0 0 0 0 0 0 0 0 0 0 0 0 0 0 0 0 0 0 0 0 0 0 0 0 0 -4 0 -1 0
0 -1 -1 0 0 0 0 0 0 0 0 0 0 0 0 0 0 0 0 0 0 0 0 0 0 0 0 0 0 0 0 0 0 0 0 0 0 0 0 0 0 -1 -1 0
-2 0 0 0 0 0 0 0 0 0 0 0 0 0 0 0 0 0 0 0 0 0 0 0 0 0 0 0 0 0 0 0 0 0 0 0 0 0 0 0 0 0 -1 -1
0 0 0 0 0 0 0 0 0 0 0 0 0 0 0 0 0 -27 0 0 0 0 0 0 0 0 0 0 0 0 0 0 0 0 0 0 0 0 0 0 0 0 0 -2
0 0 0 0 0 0 0 0 0 0 0 0 0 0 0 0 0 0 0 0 0 0 0 0 0 0 0 0 0 0 0 0 0 0 0 0 0 0 0 0 0 0 -1 -1
0 0 0 0 0 0 0 0 0 0 0 0 0 -6 -13 -16 -5 0 0 0 0 0 0 0 0 0 0 0 0 0 0 0 0 0 0 0 0 0 0 0 0 0 0 -1
0 0 0 0 0 0 0 0 -27 0 0 0 0 0 0 0 0 0 0 0 0 0 0 0 0 0 0 0 0 0 0 0 0 0 0 0 0 0 0 0 0 0 -1 0
0 0 0 0 0 0 0 -13 0 0 0 -11 0 0 0 0 0 0 0 0 0 0 0 0 0 0 0 0 0 0 0 0 0 0 0 0 0 0 0 0 0 0 0 -1
0 0 0 0 0 0 0 0 0 0 0 0 0 0 0 0 0 0 0 0 0 0 0 0 0 0 0 0 0 0 0 0 0 0 0 0 0 0 -1 -1 -1 0 0 -1
0 0 0 0 0 0 0 0 0 0 0 0 0 0 0 0 0 0 0 0 0 0 0 0 0 0 0 0 0 0 0 0 0 0 0 0 0 0 0 -1 0 0 0 -2
0 0 0 0 0 0 0 0 0 0 0 0 0 0 0 0 0 0 0 0 0 0 0 0 0 0 0 0 0 0 0 0 0 0 0 0 0 0 -1 -2 -1 -1 -1 -1
0 0 0 0 0 0 0 0 0 0 0 0 0 0 0 0 0 0 0 0 0 0 0 0 0 0 0 0 0 0 0 0 0 0 0 0 -3 -6 -6 -5 -2 0 -1 -1
0 0 0 0 0 0 0 0 0 0 0 0 0 0 0 0 0 0 0 0 0 0 0 0 0 0 0 0 0 0 0 0 0 0 0 -4 -4 -6 -3 -3 -1 0 0 -1
0 0 0 0 0 0 0 0 0 0 0 0 0 0 0 0 0 0 0 0 0 0 0 0 0 0 0 0 0 0 0 0 0 0 0 -12 -6 -1 -1 -1 0 0 0 0
0 0 0 0 0 0 0 0 0 0 0 0 0 0 0 0 0 0 0 0 0 0 0 0 0 0 0 0 0 0 0 0 0 0 0 0 0 0 0 0 0 0 0 0
0 0 0 0 0 0 0 0 0 0 0 0 0 0 0 0 0 0 0 0 0 0 0 0 0 0 0 0 -1 -1 -1 0 0 0 0 0 0 0 0 0 0 0 0 0
0 0 0 0 0 0 0 0 0 0 0 0 0 0 0 0 0 0 0 0 0 0 0 0 0 0 -1 -2 -2 -1 0 -1 0 0 0 0 0 0 0 0 0 0 0 0
0 0 0 0 0 0 0 0 0 0 0 0 0 0 0 0 0 0 0 0 0 0 0 0 0 -1 0 -1 0 0 0 0 0 0 0 0 0 0 0 0 0 0 0 0
0 0 0 0 0 0 0 0 0 0 0 0 0 0 0 0 0 0 0 0 0 0 0 0 0 0 0 0 0 0 0 0 0 0 0 0 0 0 0 0 0 0 0 0
0 0 0 0 0 0 -3 -4 -1 0 0 -1 -1 0 0 0 0 0 0 0 0 0 0 0 0 0 0 0 0 0 0 0 0 0 0 0 0 0 0 0 0 0 0 0
0 -1 -2 -4 -6 -1 0 0 -1 0 -1 0 -1 0 0 0 0 0 -1 -2 0 0 0 0 0 0 0 0 0 0 0 0 0 0 0 0 0 0 0 0 0 0 0 0
Wind_Speed
35 36 38 39 38 35 37 38 43 49 46 48 43 45 44 39 32 22 21 25 28 31 34 35 37 38 39 40 42 42 44 46 47 47 46 46 46 47 47 45 45 45 45 44
47 40 41 47 41 39 38 39 40 43 50 38 35 30 32 30 25 24 26 29 32 34 36 39 40 42 42 44 45 45 46 46 47 47 48 48 47 47 47 46 46 45 46 46
50 38 44 53 42 34 33 31 32 40 38 34 34 34 32 31 28 27 30 33 35 37 39 41 41 43 44 45 45 46 46 46 48 47 48 48 47 46 47 46 46 46 46 45
46 44 57 41 29 31 34 36 33 36 35 30 34 35 33 32 33 30 36 35 37 41 43 43 42 44 43 44 45 47 47 47 48 47 47 47 47 47 47 46 46 46 46 45
42 44 49 49 39 36 35 37 31 33 34 36 39 42 37 33 33 34 37 37 41 44 45 45 44 45 45 45 45 46 47 46 46 45 46 47 48 48 47 47 46 46 45 45
35 44 51 39 32 32 30 46 32 36 39 42 44 50 46 40 34 38 40 42 46 47 46 44 46 44 44 45 44 45 44 44 44 44 44 46 46 47 46 45 46 45 46 44
39 44 44 37 36 33 47 44 36 39 43 45 45 44 47 41 42 42 41 45 46 45 44 42 42 41 43 43 43 43 43 43 43 44 44 44 45 45 45 46 45 46 46 45
38 45 52 33 37 41 39 44 44 48 49 47 50 49 46 45 46 46 47 45 42 42 42 41 40 39 41 42 42 41 42 42 42 43 43 43 44 45 45 45 45 46 46 45
35 42 34 43 39 42 45 49 49 51 51 52 53 53 49 50 49 45 42 40 40 39 40 40 39 38 40 41 40 41 41 42 42 42 42 42 42 44 44 43 43 44 44 45
44 39 41 48 50 51 52 52 53 51 49 50 52 49 50 50 47 41 36 36 36 37 38 39 38 38 36 38 39 40 41 42 42 42 43 42 41 41 42 43 42 43 43 45
45 45 46 47 46 48 51 49 49 49 48 48 45 46 42 39 34 33 34 34 35 37 39 39 39 39 39 40 41 43 42 42 43 43 43 44 42 42 42 41 40 43 44 44
49 43 44 47 45 44 45 46 43 44 44 41 37 36 36 35 35 35 36 36 37 38 37 38 39 41 44 44 44 44 43 43 42 43 44 44 45 48 43 43 44 44 45 44
42 40 40 40 39 38 40 41 37 36 34 36 35 33 33 34 35 36 37 37 38 38 40 41 43 46 47 46 44 42 40 40 40 41 42 44 45 46 53 50 43 44 45 45
37 37 40 38 38 37 37 38 37 38 37 35 33 34 34 35 35 37 38 39 39 39 41 42 41 42 40 42 40 38 37 36 35 36 38 40 42 44 45 49 52 48 43 44
38 34 34 34 37 38 38 37 40 41 41 41 35 35 37 39 39 38 38 38 40 40 41 41 43 41 40 38 36 34 33 32 32 34 36 39 40 40 43 45 46 48 47 43
39 37 33 33 38 40 41 42 44 44 44 43 39 39 42 42 42 41 40 41 43 44 44 46 44 40 41 36 34 32 30 28 30 34 36 38 37 38 43 44 45 46 46 44
38 39 34 39 43 43 43 40 39 39 40 40 39 38 41 43 42 39 40 41 41 38 37 39 42 40 36 33 31 29 29 29 30 33 34 35 37 39 42 44 46 45 43 42
30 32 34 38 43 44 43 41 41 40 39 39 39 39 40 39 38 40 39 41 40 36 36 36 33 31 29 28 28 27 27 27 30 33 33 32 36 42 45 44 43 42 41 40
38 42 43 43 42 42 42 40 38 36 35 36 36 33 32 32 33 33 35 36 31 35 33 32 29 27 25 24 25 24 24 26 27 26 26 20 38 39 37 38 37 37 38 40
42 41 40 39 36 33 32 29 29 27 26 28 26 24 23 22 20 20 22 19 21 27 24 19 19 17 18 17 19 23 23 21 18 18 17 24 29 30 31 34 35 35 38 38
33 28 25 26 26 25 25 23 23 23 24 23 23 23 24 25 23 19 19 20 20 18 17 18 16 15 16 16 17 17 15 19 21 22 23 25 27 28 29 32 33 32 31 32
22 22 23 24 25 27 26 26 26 26 26 25 24 23 23 23 22 20 17 19 20 19 16 14 13 14 16 22 20 20 21 21 21 23 23 26 27 25 25 26 27 28 28 26
21 23 26 29 30 29 27 23 22 21 20 19 18 18 17 17 16 17 19 14 12 13 14 12 13 20 25 25 21 20 20 19 21 22 20 20 21 21 20 20 21 21 19 15
28 29 31 28 28 25 24 21 19 17 16 16 15 15 15 14 13 12 11 14 15 17 13 15 21 24 23 20 19 17 19 17 15 14 13 12 13 13 15 16 15 14 13 12
26 27 27 24 20 17 16 16 15 14 14 14 13 13 13 12 13 10 10 12 14 17 16 21 20 20 17 16 16 15 12 10 8 6 5 6 7 7 9 9 7 7 10 12
22 21 20 19 17 16 15 15 14 14 14 16 16 14 13 14 9 5 5 6 9 17 18 16 14 14 13 13 11 8 7 6 4 4 4 4 7 10 11 11 12 13 11 12
19 18 17 18 27 26 19 15 16 18 19 17 15 13 13 8 7 3 4 11 16 15 14 13 12 11 9 7 6 5 4 4 8 9 12 15 16 16 16 16 15 14 13 13
Wind_Direction
309 309 309 308 307 306 301 300 299 303 303 309 311 311 313 316 319 323 324 326 326 326 325 325 325 325 324 324 322 321 320 318 316 317 317 316 315 315 312 310 308 306 304 302
306 309 307 305 307 305 301 301 298 302 305 312 319 324 324 324 323 320 320 321 322 323 324 323 322 321 321 320 320 319 317 316 316 316 315 315 314 315 314 311 309 306 304 302
306 314 313 306 310 306 311 311 311 309 315 322 323 324 324 322 319 315 318 319 319 320 320 320 320 320 318 318 319 318 316 315 315 315 315 314 314 314 313 312 310 308 306 304
306 311 303 315 324 321 314 313 313 311 317 322 325 325 324 322 318 314 317 317 319 319 319 319 319 318 318 317 317 316 315 314 315 314 313 315 314 313 313 313 310 309 307 305
306 305 307 310 315 316 315 317 324 322 324 322 323 320 316 320 317 313 316 315 317 318 317 317 317 317 317 316 315 316 315 315 315 315 313 313 312 312 312 312 310 310 308 306
308 306 306 316 326 328 323 307 324 324 322 321 319 313 312 316 314 314 313 313 315 316 316 315 315 317 317 316 316 316 317 317 316 316 315 313 313 312 312 311 310 311 308 308
301 303 306 317 322 322 306 311 322 322 319 317 313 311 311 313 311 312 312 313 314 315 315 316 317 317 316 317 316 317 317 316 315 315 314 314 313 313 312 311 309 309 308 308
306 305 303 325 322 316 316 315 316 315 314 312 311 311 309 310 311 311 311 313 314 315 315 317 318 319 318 317 319 319 318 318 318 317 316 314 313 312 312 311 309 308 308 307
304 304 313 318 317 315 314 312 312 312 311 310 309 308 307 307 308 309 310 312 315 316 317 318 319 320 318 319 321 320 319 318 318 317 317 317 315 313 311 311 309 308 307 306
307 310 311 312 312 312 312 311 311 312 312 312 310 309 308 306 306 308 311 315 319 319 319 319 321 320 320 320 321 320 318 317 317 317 316 316 316 316 313 311 309 307 306 305
306 309 311 313 316 316 315 314 313 313 314 314 313 313 317 316 314 313 314 316 318 319 318 318 320 319 320 320 319 317 315 314 315 315 314 312 312 312 311 310 309 305 304 304
308 313 313 315 320 323 324 323 321 320 320 322 322 321 321 320 317 317 316 316 317 318 319 320 319 319 317 317 316 314 313 313 313 314 313 312 310 306 307 305 303 302 300 299
311 315 314 316 318 323 327 331 334 332 328 327 326 326 325 322 320 318 317 317 317 317 318 318 317 316 317 317 316 314 313 312 313 314 315 314 311 307 300 298 302 301 299 296
318 320 317 319 320 321 324 325 327 327 327 323 322 323 323 322 321 319 318 317 317 317 317 318 319 319 322 321 319 317 316 315 316 317 318 317 314 309 305 296 289 294 299 295
319 321 319 322 323 323 323 324 323 322 322 322 317 316 318 317 317 317 318 318 317 315 315 316 316 317 322 321 320 319 319 319 319 319 319 318 315 312 306 299 291 287 291 293
321 321 319 321 324 323 323 320 320 319 319 318 316 313 313 313 313 313 314 315 315 313 313 313 313 316 318 319 319 319 319 318 319 321 320 319 316 313 303 297 290 285 281 279
324 323 323 321 323 322 321 320 319 319 319 319 318 316 316 315 314 313 314 316 317 316 316 317 315 316 318 318 318 318 319 319 320 322 321 320 316 310 301 294 284 276 269 270
327 324 323 321 321 320 320 320 320 320 319 320 320 319 318 318 317 316 316 317 319 320 322 324 324 323 322 322 321 320 319 320 322 321 321 320 316 304 286 280 270 266 264 266
326 323 321 320 320 320 319 320 321 321 322 323 323 323 323 323 321 320 319 320 320 322 326 330 329 329 327 325 324 323 320 320 320 320 319 307 267 268 263 262 259 257 259 270
324 325 325 325 326 325 323 321 321 319 316 321 318 312 305 300 303 310 320 302 313 321 323 310 314 313 319 317 318 325 322 317 300 283 275 261 258 256 255 255 254 257 266 265
328 328 324 324 321 316 315 309 305 295 290 293 294 289 284 279 280 291 288 283 284 313 294 279 280 293 315 312 314 319 303 275 267 263 261 259 258 257 257 257 256 254 253 255
324 318 310 306 302 291 288 285 282 280 281 280 279 279 280 279 279 278 279 278 276 274 276 283 300 302 287 274 272 269 267 266 266 265 263 265 263 256 253 250 251 253 251 243
305 301 292 288 286 285 285 285 284 285 286 289 290 290 291 291 292 282 274 291 295 283 277 295 293 272 273 272 267 267 269 270 272 272 265 259 255 249 245 244 247 261 298 317
289 287 285 286 286 288 288 289 289 290 292 296 301 303 310 308 305 311 288 273 270 267 272 268 268 271 271 266 268 269 276 277 274 266 256 248 238 238 250 296 325 333 347 359
289 288 287 290 294 304 304 303 303 312 316 314 313 320 322 327 329 312 280 267 264 261 259 264 266 267 264 263 271 274 274 277 266 235 199 191 189 246 296 307 310 331 9 25
296 295 300 299 302 301 315 329 328 330 332 344 347 346 349 351 343 291 281 259 249 256 258 255 253 259 263 268 265 259 262 280 275 253 207 182 326 350 2 15 26 36 45 54
330 307 322 337 347 347 346 342 344 350 353 350 349 354 360 1 258 260 240 243 256 253 246 250 259 257 246 238 238 247 256 288 330 341 357 11 21 28 35 40 44 46 48 49